Date String (YYYY-MM-DD hh:mm:ss) UTC,Instrument flags,absolute air pressure of the measurement (hPa),sample flow rate (lpm),inlet stack bypass flow (lpm),air temperature of the measurement (°C),ambient temperature measured by the external sensor (°C),aerosol sample conditioner tube jacket temperature (°C),OPC LED temperature (°C),internal box temperature (°C),relative humidity of the measurement (%),span deviation,mass concentration of particles derived from Lorenz-Mie calculation of OPC scattering (μg/m³),mass concentration of particles derived from Lorenz-Mie calculation of OPC scattering (μg/m³),mass concentration of particles derived from Lorenz-Mie calculation of OPC scattering (μg/m³)
DateTimeUTC,F1_M11,P_M11,Q1_M11,Q2_M11,T1_M11,T2_M11,T3_M11,T4_M11,T5_M11,U1_M11,ZSPAN_M11,X0_M11,X2_M11,X1_M11
2024-04-28 09:00:00,SystemResetWarning,0824.0,5.00,000.00,021.5,020.9,000.0,030.0,023.3,024.5,0000.0,0000.99,0000.95,0000.93
2024-04-28 09:01:00,SystemResetWarning,0824.0,5.00,000.00,021.5,020.9,000.0,030.0,023.3,024.5,0000.0,0000.99,0000.96,0000.93
2024-04-28 09:02:00,SystemResetWarning,0824.0,5.00,000.00,021.5,020.9,000.0,030.0,023.3,024.6,0000.0,0000.99,0000.96,0000.93
2024-04-28 09:03:00,SystemResetWarning,0824.0,4.99,000.00,021.5,020.9,000.0,030.0,023.3,024.7,0000.0,0001.00,0000.96,0000.94
2024-04-28 09:04:00,SystemResetWarning,0824.0,4.99,000.00,021.5,020.9,000.0,030.0,023.3,025.7,0000.0,0001.03,0000.98,0000.95
2024-04-28 09:05:00,SystemResetWarning,0823.9,4.99,000.00,021.5,020.9,000.0,030.0,023.3,025.3,0000.0,0001.03,0000.98,0000.95
2024-04-28 09:06:00,SystemResetWarning,0823.9,5.00,000.00,021.5,020.9,000.0,030.0,023.3,025.0,0000.0,0001.07,0000.99,0000.95
2024-04-28 09:07:00,SystemResetWarning,0824.0,5.01,000.00,021.5,020.9,000.0,030.0,023.4,024.9,0000.0,0001.07,0000.98,0000.94
2024-04-28 09:08:00,SystemResetWarning,0824.0,5.01,000.00,021.5,020.9,000.0,030.0,023.3,025.0,0000.0,0001.05,0000.96,0000.92
2024-04-28 09:09:00,SystemResetWarning,0824.0,4.99,000.00,021.5,020.9,000.0,030.0,023.3,025.0,0000.0,0001.03,0000.93,0000.89
2024-04-28 09:10:00,SystemResetWarning,0824.0,4.99,000.00,021.5,020.9,000.0,030.0,023.3,025.0,0000.0,0000.94,0000.86,0000.83
2024-04-28 09:11:00,SystemResetWarning,0824.0,5.00,000.00,021.5,020.9,000.0,030.0,023.3,024.9,0000.0,0000.94,0000.81,0000.77
2024-04-28 09:12:00,SystemResetWarning,0824.0,5.00,000.00,021.5,020.9,000.0,030.0,023.3,024.9,0000.0,0000.94,0000.79,0000.73
2024-04-28 09:13:00,SystemResetWarning,0824.0,5.00,000.00,021.5,020.9,000.0,030.0,023.4,025.0,0000.0,0000.95,0000.78,0000.72
2024-04-28 09:14:00,SystemResetWarning,0824.0,5.00,000.00,021.5,020.9,000.0,030.1,023.3,025.0,0000.0,0000.96,0000.79,0000.71
2024-04-28 09:15:00,SystemResetWarning,0823.9,5.00,000.00,021.5,020.9,000.0,030.0,023.4,025.0,0000.0,0000.95,0000.77,0000.69
2024-04-28 09:16:00,SystemResetWarning,0824.0,5.00,000.00,021.5,020.9,000.0,030.1,023.4,025.1,0000.0,0000.92,0000.76,0000.69
2024-04-28 09:17:00,SystemResetWarning,0824.0,5.00,000.00,021.5,020.9,000.0,030.1,023.4,025.1,0000.0,0000.88,0000.74,0000.68
2024-04-28 09:18:00,SystemResetWarning,0824.0,5.00,000.00,021.5,020.9,000.0,030.1,023.4,025.1,0000.0,0000.88,0000.74,0000.68
2024-04-28 09:19:00,SystemResetWarning,0824.0,5.00,000.00,021.5,020.9,000.0,030.1,023.4,025.1,0000.0,0000.88,0000.74,0000.68
2024-04-28 09:20:00,SystemResetWarning,0824.0,4.99,000.00,021.5,020.9,000.0,030.1,023.4,025.1,0000.0,0000.86,0000.73,0000.68
2024-04-28 09:21:00,SystemResetWarning,0824.0,5.00,000.00,021.6,020.9,000.0,030.1,023.4,025.0,0000.0,0000.87,0000.73,0000.68
2024-04-28 09:22:00,SystemResetWarning,0824.1,4.99,000.00,021.6,020.9,000.0,030.1,023.4,024.9,0000.0,0000.84,0000.73,0000.68
2024-04-28 09:23:00,SystemResetWarning,0824.2,5.00,000.00,021.6,020.9,000.0,030.1,023.4,024.9,0000.0,0000.82,0000.73,0000.68
2024-04-28 09:24:00,SystemResetWarning,0824.2,5.01,000.00,021.6,021.0,000.0,030.1,023.4,024.8,0000.0,0000.83,0000.73,0000.69
2024-04-28 09:25:00,SystemResetWarning,0824.2,5.01,000.00,021.6,021.0,000.0,030.1,023.4,024.8,0000.0,0000.80,0000.72,0000.69
2024-04-28 09:26:00,SystemResetWarning,0824.1,5.00,000.00,021.6,021.0,000.0,030.1,023.4,024.7,0000.0,0000.78,0000.70,0000.68
2024-04-28 09:27:00,SystemResetWarning,0824.1,4.99,000.00,021.6,021.0,000.0,030.1,023.4,024.7,0000.0,0000.80,0000.71,0000.68
2024-04-28 09:28:00,SystemResetWarning,0824.2,5.00,000.00,021.6,020.9,000.0,030.1,023.4,024.7,0000.0,0000.79,0000.70,0000.67
2024-04-28 09:29:00,SystemResetWarning,0824.2,5.00,000.00,021.6,021.0,000.0,030.1,023.4,024.7,0000.0,0000.77,0000.69,0000.66
2024-04-28 09:30:00,SystemResetWarning,0824.2,5.01,000.00,021.6,021.0,000.0,030.1,023.4,024.8,0000.0,0000.77,0000.69,0000.66
2024-04-28 09:31:00,SystemResetWarning,0824.2,5.00,000.00,021.6,020.9,000.0,030.1,023.4,024.8,0000.0,0000.78,0000.69,0000.66
2024-04-28 09:32:00,SystemResetWarning,0824.2,4.99,000.00,021.6,020.9,000.0,030.1,023.4,024.8,0000.0,0000.81,0000.71,0000.67
2024-04-28 09:33:00,SystemResetWarning,0824.2,4.99,000.00,021.6,020.9,000.0,030.1,023.4,024.8,0000.0,0000.84,0000.72,0000.67
2024-04-28 09:34:00,SystemResetWarning,0824.2,5.00,000.00,021.6,020.9,000.0,030.1,023.4,024.8,0000.0,0000.82,0000.72,0000.68
2024-04-28 09:35:00,SystemResetWarning,0824.3,4.99,000.00,021.6,020.9,000.0,030.1,023.4,024.8,0000.0,0000.81,0000.71,0000.68
2024-04-28 09:36:00,SystemResetWarning,0824.3,5.01,000.00,021.6,020.9,000.0,030.1,023.4,024.9,0000.0,0000.82,0000.72,0000.69
2024-04-28 09:37:00,SystemResetWarning,0824.2,5.01,000.00,021.6,020.9,000.0,030.1,023.4,024.9,0000.0,0000.84,0000.74,0000.71
2024-04-28 09:38:00,SystemResetWarning,0824.3,5.00,000.00,021.6,020.9,000.0,030.1,023.4,024.9,0000.0,0000.83,0000.74,0000.72
2024-04-28 09:39:00,SystemResetWarning,0824.3,4.99,000.00,021.6,020.9,000.0,030.1,023.4,024.9,0000.0,0000.88,0000.76,0000.73
2024-04-28 09:40:00,SystemResetWarning,0824.3,4.99,000.00,021.6,020.9,000.0,030.1,023.4,024.9,0000.0,0000.89,0000.77,0000.74
2024-04-28 09:41:00,SystemResetWarning,0824.3,5.00,000.00,021.6,020.9,000.0,030.1,023.4,024.9,0000.0,0000.89,0000.78,0000.75
2024-04-28 09:42:00,SystemResetWarning,0824.3,5.01,000.00,021.6,020.9,000.0,030.1,023.4,024.9,0000.0,0000.90,0000.78,0000.75
2024-04-28 09:43:00,SystemResetWarning,0824.3,5.01,000.00,021.6,020.9,000.0,030.1,023.4,024.9,0000.0,0000.88,0000.77,0000.75
2024-04-28 09:44:00,SystemResetWarning,0824.3,4.99,000.00,021.6,020.9,000.0,030.1,023.4,024.9,0000.0,0000.84,0000.76,0000.75
2024-04-28 09:45:00,SystemResetWarning,0824.3,4.99,000.00,021.6,020.9,000.0,030.1,023.4,024.9,0000.0,0000.85,0000.77,0000.76
2024-04-28 09:46:00,SystemResetWarning,0824.3,5.00,000.00,021.6,020.9,000.0,030.1,023.3,024.9,0000.0,0000.85,0000.78,0000.77
2024-04-28 09:47:00,SystemResetWarning,0824.4,5.01,000.00,021.5,020.9,000.0,030.1,023.3,024.9,0000.0,0000.88,0000.79,0000.77
2024-04-28 09:48:00,SystemResetWarning,0824.4,5.01,000.00,021.5,020.9,000.0,030.1,023.3,024.9,0000.0,0000.92,0000.81,0000.77
2024-04-28 09:49:00,SystemResetWarning,0824.4,5.00,000.00,021.5,020.8,000.0,030.1,023.4,024.8,0000.0,0000.93,0000.81,0000.77
2024-04-28 09:50:00,SystemResetWarning,0824.4,4.98,000.00,021.5,020.8,000.0,030.1,023.3,024.8,0000.0,0000.89,0000.80,0000.77
2024-04-28 09:51:00,SystemResetWarning,0824.3,4.99,000.00,021.5,020.8,000.0,030.1,023.3,024.8,0000.0,0000.89,0000.80,0000.77
2024-04-28 09:52:00,SystemResetWarning,0824.3,5.01,000.00,021.5,020.8,000.0,030.1,023.3,024.8,0000.0,0000.89,0000.81,0000.78
2024-04-28 09:53:00,SystemResetWarning,0824.4,5.01,000.00,021.5,020.9,000.0,030.1,023.3,024.8,0000.0,0000.89,0000.82,0000.79
2024-04-28 09:54:00,SystemResetWarning,0824.4,4.99,000.00,021.5,020.9,000.0,030.1,023.3,024.8,0000.0,0000.90,0000.82,0000.80
2024-04-28 09:55:00,SystemResetWarning,0824.4,5.00,000.00,021.5,020.9,000.0,030.1,023.3,024.8,0000.0,0000.91,0000.83,0000.80
2024-04-28 09:56:00,SystemResetWarning,0824.4,5.00,000.00,021.5,020.9,000.0,030.1,023.3,024.8,0000.0,0000.92,0000.85,0000.82
2024-04-28 09:57:00,SystemResetWarning,0824.3,5.00,000.00,021.5,020.9,000.0,030.1,023.3,025.0,0000.0,0000.94,0000.86,0000.83
2024-04-28 09:58:00,SystemResetWarning,0824.4,5.00,000.00,021.5,020.9,000.0,030.1,023.3,025.7,0000.0,0000.99,0000.91,0000.87
2024-04-28 09:59:00,SystemResetWarning,0824.4,5.00,000.00,021.5,020.9,000.0,030.1,023.3,025.2,0000.0,0000.99,0000.93,0000.89
